Regional Weather Roundup
Issued by NWS Goodland, KS

Home | Current Version | Previous Version | Text Only | Print | Product List | Glossary Off
Versions: 1 2 3 4 5 6 7 8 9 10 11 12 13 14 15 16 17 18 19 20 21 22 23 24 25 26 27 28 29 30 31 32 33 34 35 36 37 38 39 40 41 42 43 44 45 46 47 48 49 50

000
ASUS43 KGLD 222259
RWRGLD

GOODLAND FORECAST AREA HOURLY WEATHER ROUNDUP
NATIONAL WEATHER SERVICE GOODLAND KS
500 PM MDT FRI MAY 22 2015

...OFFICIAL OBSERVATIONS...

CITY           SKY/WX    TMP DP  RH WIND       PRES   REMARKS
GOODLAND KS    CLOUDY    55  52  89 SE20G30   29.99F
HILL CITY KS   CLOUDY    55  50  83 E10       30.10S
IMPERIAL NEB   CLOUDY    49  46  90 E17G25    30.05F
MCCOOK NEB     CLOUDY    51  49  92 E15       30.07F
AKRON CO       CLOUDY    55  50  83 NE10      29.98S
BURLINGTON CO  PTSUNNY   61  54  77 SE21G28   29.97S
LIMON CO       MOSUNNY   60  48  64 E8        29.98S
$$

...UNOFFICIAL OBSERVATIONS...

CITY           SKY/WX    TMP DP  RH WIND       PRES   REMARKS
COLBY KS       CLOUDY    54  54 100 SE17G24   30.04
GOVE KS          N/A     56  32  40 MISG        N/A
LENORA KS        N/A     52  32  46 MISG        N/A
NORTON KS      DRIZZLE   50  48  93 E9        30.09
SHARON SPRINGS   N/A     59  55  87 MISG        N/A
TRENTON NEB      N/A     49  32  52 E12         N/A
KIT CARSON CO    N/A     66  55  68 MISG        N/A
YUMA CO          N/A     55  55 100 E15         N/A
$$



USA.gov is the U.S. government's official web portal to all federal, state and local government web resources and services.